Time,TemperatureF,DewpointF,PressureIn,WindDirection,WindDirectionDegrees,WindSpeedMPH,WindSpeedGustMPH,Humidity,HourlyPrecipIn,Conditions,Clouds,dailyrainin,SoftwareType,DateUTC
2013-07-29 00:02:00,75.0,72.0,30.05,SE,142,0.0,-999.0,91,-99.99,,,-99.99,,2013-07-29 04:02:00,
2013-07-29 00:12:00,75.0,72.0,30.05,SE,142,0.0,-999.0,91,-99.99,,,-99.99,,2013-07-29 04:12:00,
2013-07-29 00:22:00,75.0,72.0,30.05,SE,142,0.0,-999.0,91,-99.99,,,-99.99,,2013-07-29 04:22:00,
2013-07-29 00:32:00,75.0,72.0,30.05,SE,142,0.0,-999.0,91,-99.99,,,-99.99,,2013-07-29 04:32:00,
2013-07-29 00:43:00,75.0,72.0,30.05,SE,142,0.0,-999.0,91,-99.99,,,-99.99,,2013-07-29 04:43:00,
2013-07-29 00:53:00,75.0,73.0,30.05,SE,142,0.0,-999.0,92,-99.99,,,-99.99,,2013-07-29 04:53:00,
2013-07-29 01:02:00,75.0,73.0,30.05,SE,142,0.0,-999.0,92,-99.99,,,-99.99,,2013-07-29 05:02:00,
2013-07-29 01:12:00,75.0,73.0,30.05,SE,142,0.0,-999.0,92,-99.99,,,-99.99,,2013-07-29 05:12:00,
2013-07-29 01:22:00,75.0,73.0,30.05,SE,142,0.0,-999.0,92,-99.99,,,-99.99,,2013-07-29 05:22:00,
2013-07-29 01:32:00,75.0,73.0,30.05,SE,142,0.0,-999.0,92,-99.99,,,-99.99,,2013-07-29 05:32:00,
2013-07-29 01:43:00,75.0,73.0,30.05,SE,142,0.0,-999.0,92,-99.99,,,-99.99,,2013-07-29 05:43:00,
2013-07-29 01:53:00,75.0,73.0,30.04,SE,142,0.0,-999.0,92,-99.99,,,-99.99,,2013-07-29 05:53:00,
2013-07-29 02:02:00,75.0,73.0,30.04,SE,142,0.0,-999.0,92,-99.99,,,-99.99,,2013-07-29 06:02:00,
2013-07-29 02:12:00,75.0,73.0,30.04,SE,142,0.0,-999.0,92,-99.99,,,-99.99,,2013-07-29 06:12:00,
2013-07-29 02:22:00,75.0,73.0,30.03,SE,142,0.0,-999.0,92,-99.99,,,-99.99,,2013-07-29 06:22:00,
2013-07-29 02:32:00,75.0,73.0,30.03,SE,142,0.0,-999.0,92,-99.99,,,-99.99,,2013-07-29 06:32:00,
2013-07-29 02:33:00,75.0,73.0,30.01,SE,142,0.0,-999.0,92,-99.99,,,-99.99,,2013-07-29 06:33:00,
2013-07-29 02:43:00,75.0,73.0,30.03,SE,142,0.0,-999.0,92,-99.99,,,-99.99,,2013-07-29 06:43:00,
2013-07-29 02:52:00,75.0,73.0,30.01,SE,142,0.0,-999.0,92,-99.99,,,-99.99,,2013-07-29 06:52:00,
2013-07-29 03:02:00,75.0,73.0,30.01,SE,142,0.0,-999.0,92,-99.99,,,-99.99,,2013-07-29 07:02:00,
2013-07-29 03:12:00,75.0,73.0,30.01,SE,142,0.0,-999.0,92,-99.99,,,-99.99,,2013-07-29 07:12:00,
2013-07-29 03:23:00,75.0,73.0,30.01,SE,142,0.0,-999.0,92,-99.99,,,-99.99,,2013-07-29 07:23:00,
2013-07-29 09:29:00,79.0,76.0,30.09,SE,142,0.0,-999.0,90,-99.99,,,-99.99,,2013-07-29 13:29:00,
2013-07-29 09:38:00,79.0,76.0,30.09,SE,142,0.0,-999.0,90,-99.99,,,-99.99,,2013-07-29 13:38:00,
2013-07-29 09:45:00,79.0,76.0,30.09,SE,142,0.0,-999.0,90,-99.99,,,-99.99,,2013-07-29 13:45:00,
2013-07-29 09:57:00,83.0,78.0,30.10,SE,141,0.0,-999.0,84,-99.99,,,-99.99,,2013-07-29 13:57:00,
2013-07-29 10:07:00,83.0,78.0,30.10,SE,141,0.0,-999.0,84,-99.99,,,-99.99,,2013-07-29 14:07:00,
2013-07-29 10:13:00,83.0,78.0,30.10,SE,141,0.0,-999.0,84,-99.99,,,-99.99,,2013-07-29 14:13:00,
2013-07-29 10:35:00,84.0,77.0,30.10,SE,134,0.0,-999.0,80,-99.99,,,-99.99,,2013-07-29 14:35:00,
2013-07-29 10:48:00,84.0,77.0,30.10,SE,134,0.0,-999.0,80,-99.99,,,-99.99,,2013-07-29 14:48:00,
2013-07-29 10:57:00,85.0,76.0,30.10,SE,133,0.0,-999.0,75,-99.99,,,-99.99,,2013-07-29 14:57:00,
2013-07-29 11:16:00,85.0,76.0,30.10,SE,133,0.0,-999.0,75,-99.99,,,-99.99,,2013-07-29 15:16:00,
2013-07-29 11:25:00,87.0,76.0,30.11,ESE,103,0.0,-999.0,70,-99.99,,,-99.99,,2013-07-29 15:25:00,
2013-07-29 11:37:00,87.0,76.0,30.11,ESE,103,0.0,-999.0,70,-99.99,,,-99.99,,2013-07-29 15:37:00,
2013-07-29 11:46:00,87.0,76.0,30.11,ESE,103,0.0,-999.0,70,-99.99,,,-99.99,,2013-07-29 15:46:00,
2013-07-29 11:56:00,90.0,77.0,30.11,ESE,103,0.0,-999.0,66,-99.99,,,-99.99,,2013-07-29 15:56:00,
2013-07-29 12:08:00,90.0,77.0,30.11,ESE,103,0.0,-999.0,66,-99.99,,,-99.99,,2013-07-29 16:08:00,
2013-07-29 12:13:00,90.0,77.0,30.11,ESE,103,0.0,-999.0,66,-99.99,,,-99.99,,2013-07-29 16:13:00,
2013-07-29 12:24:00,90.0,77.0,30.10,ESE,103,0.0,-999.0,65,-99.99,,,-99.99,,2013-07-29 16:24:00,
2013-07-29 12:39:00,90.0,77.0,30.10,ESE,103,0.0,-999.0,65,-99.99,,,-99.99,,2013-07-29 16:39:00,
2013-07-29 12:48:00,90.0,77.0,30.10,ESE,103,0.0,-999.0,65,-99.99,,,-99.99,,2013-07-29 16:48:00,
2013-07-29 12:58:00,90.0,76.0,30.09,East,100,0.0,-999.0,63,-99.99,,,-99.99,,2013-07-29 16:58:00,
2013-07-29 13:08:00,90.0,76.0,30.09,East,100,0.0,-999.0,63,-99.99,,,-99.99,,2013-07-29 17:08:00,
2013-07-29 13:25:00,91.0,76.0,30.08,East,100,0.0,-999.0,62,-99.99,,,-99.99,,2013-07-29 17:25:00,
2013-07-29 13:41:00,91.0,76.0,30.08,East,100,0.0,-999.0,62,-99.99,,,-99.99,,2013-07-29 17:41:00,
2013-07-29 14:00:00,92.0,76.0,30.08,East,95,0.0,-999.0,59,-99.99,,,-99.99,,2013-07-29 18:00:00,
2013-07-29 14:03:00,93.0,76.0,30.08,ENE,78,0.0,-999.0,58,-99.99,,,-99.99,,2013-07-29 18:03:00,
2013-07-29 14:15:00,92.0,76.0,30.08,East,95,0.0,-999.0,59,-99.99,,,-99.99,,2013-07-29 18:15:00,
2013-07-29 14:27:00,93.0,76.0,30.08,ENE,78,0.0,-999.0,58,-99.99,,,-99.99,,2013-07-29 18:27:00,
2013-07-29 14:36:00,93.0,76.0,30.08,ENE,78,0.0,-999.0,58,-99.99,,,-99.99,,2013-07-29 18:36:00,
2013-07-29 14:47:00,93.0,76.0,30.08,ENE,78,0.0,-999.0,58,-99.99,,,-99.99,,2013-07-29 18:47:00,